www.pogodaiklimat.ru

Погода и климат >> Архив погоды >> Ирак >> Мосул


ПОГОДА в Мосуле

  • Прогноз погоды в Мосуле
  • Монитор погоды в Мосуле

АРХИВ ПОГОДЫ в Мосуле

Время (UTC), дата Ветер
(напр.,м/с)
 
Видим.   Явления Облачность Т
(С)
Тd
(С)
f
(%)
Тe
(С)
Тes
(С)
Комфортность P
(гПа)
Po
(гПа)
Тmin
(С)
Tmax
(С)
R
(мм)
R24
(мм)
S
(см)
06 13.06 З 2 7000 м пыль ясно +30.8 +20.3 54 +38 +50 очень
душно
1006.4 981.5 +21.6
09 13.06 ЮВ 2 10 км ясно +36.4 +21.0 41 +43 +65 опасность
перегрева
1005.6 981.1
12 13.06 Ю 5 10 км 3/3 750 м
[Cu hum]
+38.7 +23.2 41 +48 +53 опасность
перегрева
1003.9 979.7
15 13.06 В 2 10 км 5/3
[Cu hum Ci fib]
+37.2 +22.2 42 +46 +47 опасность
перегрева
1003.1 978.8
00 14.06 ЮВ 2 10 км ясно +25.9 +18.0 62 +30 +30 душно 1004.8 979.5
03 14.06 штиль 0 8000 м мгла 1/0
[Ac trans]
+23.4 +17.3 69 +29 +30 душно 1006.0 980.5
06 14.06 СЗ 2 8000 м пыль 6/3 900 м
[Cu med, cong Ac trans]
+32.0 +21.7 55 +41 +47 опасность
перегрева
1005.8 981.0 +21.7
09 14.06 З 2 10 км 3/3 900 м
[Cu hum]
+38.4 +22.5 40 +47 +62 опасность
перегрева
1004.4 980.1
12 14.06 З 3 10 км 5/5 900 м
[Cu med, cong]
+40.4 +23.5 38 +50 +56 опасность
перегрева
1002.8 978.7
15 14.06 СВ 2 10 км 4/4 900 м
[Cu med, cong]
+39.0 +22.4 39 +48 +49 опасность
перегрева
1001.5 977.3
18 14.06 СВ 3 10 км 4/4 900 м
[Cu med, cong]
+33.6 +20.1 45 +40 +40 очень
душно
1002.7 978.1 +41.0
21 14.06 СЗ 2 10 км 5/5 900 м
[Sc]
+29.0 +18.8 54 +34 +34 очень
душно
1004.4 979.4
00 15.06 ЮВ 4 10 км 6/1 750 м
[Cb cap Ac trans]
+32.6 +20.0 47 +39 +39 очень
душно
1003.7 979.0
03 15.06 СЗ 5 8000 м мгла 6/6 840 м
[Cu Sc Ci fib]
+30.0 +18.6 50 +35 +35 очень
душно
1003.4 978.5
06 15.06 СЗ 3 8000 м пыль 9/9 840 м
[Cu Sc]
+34.6 +21.4 46 +42 +43 опасность
перегрева
1005.0 980.4 +21.6
09 15.06 СЗ 8 700 м гроза, пыльная буря {ливн. осадки} 9/9 840 м
[Cb cap]
+36.5 +21.8 43 +45 +45 опасность
перегрева
1004.5 980.1
12 15.06 СВ 2 10 км {гроза, ливн. осадки} 5/3 900 м
[Cu med, cong Ci sp]
+39.3 +23.6 41 +50 +58 опасность
перегрева
1002.4 978.2
15 15.06 штиль 0 10 км 3/3 900 м
[Cu hum]
+39.5 +24.9 44 +52 +54 опасность
перегрева
1001.4 977.3
21 15.06 СЗ 2 10 км 3/0
[Ac trans]
+29.0 +18.6 53 +34 +34 очень
душно
1003.5 978.5
03 16.06 штиль 0 10 км 4/4 900 м
[Cu hum]
+25.4 +17.9 63 +30 +30 душно 1003.5 978.2
06 16.06 С 7 6000 м пыльный позёмок 5/3 960 м
[Sc Ci sp]
+36.2 +19.0 37 +41 +43 опасность
перегрева
1002.7 978.3 +24.8
09 16.06 С 4 6000 м пыльный позёмок 4/3 960 м
[Sc Ci sp]
+40.8 +24.4 40 +52 +62 опасность
перегрева
1002.0 978.0
12 16.06 СВ 2 10 км 5/4 900 м
[Cu med, cong Ci sp]
+42.6 +25.8 39 +56 +64 опасность
перегрева
1001.1 977.2
15 16.06 штиль 0 10 км 3/3 900 м
[Cu hum]
+41.0 +24.9 40 +53 +54 опасность
перегрева
998.6 974.7
18 16.06 СВ 3 10 км ясно +35.8 +21.8 44 +44 +44 опасность
перегрева
999.5 975.1 +43.0
21 16.06 штиль 0 10 км 4/0
[Ac trans Ci fib]
+28.6 +20.9 63 +36 +36 очень
душно
999.8 974.9
00 17.06 штиль 0 10 км 5/0
[Ac trans]
+26.4 +18.2 61 +31 +31 душно 1000.6 975.5
06 17.06 З 4 8000 м пыль ясно +32.6 +22.2 54 +41 +50 опасность
перегрева
1004.3 979.6 +24.8
09 17.06 З 3 8000 м пыль ясно +39.4 +25.8 46 +53 +71 опасность
перегрева
1003.4 979.2
12 17.06 З 4 10 км 1/1 900 м
[Cu hum]
+39.5 +28.1 53 +60 +68 опасность
перегрева
1003.2 979.0
15 17.06 З 5 10 км ясно +37.8 +27.8 57 +57 +58 опасность
перегрева
1003.4 979.1
18 17.06 штиль 0 10 км ясно +30.6 +21.4 58 +39 +39 очень
душно
1005.4 980.5 +41.2
21 17.06 штиль 0 10 км ясно +26.5 +18.2 60 +31 +31 душно 1006.8 981.5
00 18.06 штиль 0 10 км ясно +24.0 +16.5 63 +27 +27 жарко 1006.5 981.0
03 18.06 штиль 0 10 км ясно +24.4 +17.7 66 +28 +30 душно 1007.0 981.5
06 18.06 штиль 0 8000 м пыль ясно +31.5 +22.3 58 +41 +57 опасность
перегрева
1006.7 981.8 +22.4
09 18.06 СЗ 3 10 км 3/3 900 м
[Cu hum]
+37.2 +24.6 49 +50 +62 опасность
перегрева
1005.1 980.7
12 18.06 З 2 10 км 5/5 900 м
[Cu med, cong]
+38.8 +25.5 47 +53 +59 опасность
перегрева
1003.2 979.0
15 18.06 З 4 10 км 3/3 900 м
[Cu med, cong]
+37.0 +29.3 65 +61 +62 опасность
перегрева
1002.4 978.1
18 18.06 З 3 10 км ясно +32.3 +25.7 68 +47 +47 опасность
перегрева
1004.7 979.9 +40.2
21 18.06 СЗ 2 10 км 3/0
[Ci fib]
+27.0 +19.6 64 +33 +33 очень
душно
1005.7 980.5
00 19.06 СЗ 2 10 км ясно +25.8 +19.3 67 +31 +31 очень
душно
1005.3 980.0
03 19.06 С 2 10 км ясно +25.4 +19.8 71 +31 +32 очень
душно
1006.0 980.6
06 19.06 СЗ 5 10 км ясно +29.8 +22.8 66 +39 +46 очень
душно
1006.0 981.0 +23.8
09 19.06 З 5 10 км 3/3 900 м
[Cu med, cong]
+34.5 +28.0 69 +55 +63 опасность
перегрева
1004.6 980.0
12 19.06 ЮЗ 2 10 км 5/5 900 м
[Cu med, cong]
+37.0 +30.7 70 +66 +72 опасность
перегрева
1002.8 978.5
15 19.06 СЗ 2 10 км 3/3 900 м
[Cu hum]
+36.0 +29.3 69 +61 +62 опасность
перегрева
1002.1 977.7
18 19.06 З 2 10 км ясно +31.4 +25.8 72 +46 +46 опасность
перегрева
1003.9 979.1 +38.0
03 20.06 Ю 2 10 км 3/0
[Ci sp]
+25.5 +20.8 75 +32 +33 очень
душно
1004.5 979.2

 

Местоположение метеостанции Мосул (Ирак): широта 36.32 долгота 43.15 высота над уровнем моря 223 м.

В архиве по умолчанию представлена погода в Мосуле за последнюю неделю. Архивные данные за месяц целиком и за предыдущие месяцы, начиная с января 2011 года, Вы можете получить, выбрав интересующий диапазон дат из раскрывающегося списка и нажав кнопку "Ввод!".


*Определитесь, кто Вы:
робот инопланетянин человек

Внимание! Время в таблицах - всемирное. Для получения местного времени необходимо прибавить поправку, которая равна 3 ч.

Смотрите также архив погоды в соседних городах и на ближайших метеорологических станциях:

Погода в Талль-Афаре (Ирак) (60 км)
Погода в Дохуке (Ирак) (63 км)
Погода в Махмуре (Ирак) (75 км)
Погода в Эрбиле (Ирак) (79 км)
Погода в Акре (Ирак) (81 км)
Погода в Салахадине (Ирак) (94 км)
Погода в Закхо (Ирак) (98 км)
Погода в Рабиа (Ирак) (108 км)
Погода в Киркуке (Ирак) (147 км)
Погода в Ширнаке (Турция) (147 км)

Пояснения к столбцам:

Ветер - указаны скорость ветра в м/с - средняя за 10 мин, порывы в срок и между сроками (в фигурных скобках) и направление, откуда дует ветер: С - северный, СВ - северо-восточный, В - восточный, ЮВ - юго-восточный, Ю - южный, ЮЗ - юго-западный, З - западный, СЗ - северо-западный.
Видимость - горизонтальная дальность видимости в метрах или километрах. При видимости от 1 до 10 км при отсутствии осадков обычно наблюдается дымка, при ухудшении видимости до 1 км и менее - туман. В сухую погоду видимость может ухудшаться дымом, пылью или мглою.
Явления - указаны атмосферные явления, наблюдавшиеся в срок или в последний час перед сроком; фигурными скобками обозначены явления, наблюдавшиеся между сроками (за 1-3 часа до срока); квадратными скобками обозначены град или гололедные отложения с указанием их диаметра в мм.
Облачность - указаны через наклонную черту общая и нижняя облачность в баллах и высота нижней границы облаков в метрах; квадратными скобками обозначены формы облаков: Ci - перистые, Cs - перисто-слоистые, Cc - перисто-кучевые, Ac - высококучевые, As - высокослоистые, Sc - слоисто-кучевые, Ns - слоисто-дождевые, Cu - кучевые, Cb - кучево-дождевые. Подробнее классификацию облаков см. в Атласе облаков (PDF).
T - Температура воздуха - температура, измеренная на высоте 2 м над землей.
Td - Температура точки росы - температура, при понижении до которой содержащийся в воздухе водяной пар достигнет насыщения.
f - Относительная влажность воздуха - влажноcть воздуха, измеренная на высоте 2 м над землей.
Te - Эффективная температура - температура, которую ощущает одетый по сезону человек в тени. Характеристика душности погоды. При расчете учитывается влияние влажности воздуха и скорости ветра на теплоощущения человека.
Tes - Эффективная температура на солнце - температура, которую ощущает человек, с поправкой на солнечный нагрев. Характеристика знойности погоды. Зависит от высоты солнца над горизонтом, облачности и скорости ветра. Ночью, в пасмурную погоду, а также при ветре 12 м/с и более поправка равна нулю.
P - Атмосферное давление - приведенное к уровню моря атмосферное давление.
Po - Атмосферное давление - измеренное на уровне метеостанции атмосферное давление.
Tmin - Минимальная температура - минимум температуры воздуха на высоте 2 м над землей.
Tmax - Максимальная температура - максимум температуры воздуха на высоте 2 м над землей.
R - Количество осадков - Количество выпавших осадков за период времени, мм. При наведении курсора мыши на число - период времени, за который выпало указанное количество осадков.
R24 - Количество осадков - Количество выпавших осадков за 24 часа, мм.
S - Снежный покров - Высота снежного покрова, см. При наведении курсора мыши на число - состояние снежного покрова и степень покрытия местности в баллах.